C/2019 J3 ( ATLAS )

Japanese version
Home page
Updated on August 6, 2019

---------------------------------------------------------------------

* Profile

Discovery Date May 14, 2019
Magnitude 18.7 mag
Discoverer Asteroid Terrestrial-Impact Last Alert System (ATLAS) search program

* Pictures

* Orbital Elements

Epoch 2019 July 16.0 TT = JDT 2458680.5                                         
T 2019 Aug. 1.88952 TT                                  MPCLINUX                
q   2.3735359            (2000.0)            P               Q                  
z  -0.0003291      Peri.   16.55257     -0.17980323     -0.63664583             
 +/-0.0001140      Node   270.51712     -0.96597108     -0.02981907             
e   1.0007812      Incl.  131.41547     -0.18593191     +0.77057959             
From 67 observations 2019 May 14-July 24, mean residual 0".6.                   

* Magnitudes Graph

        m1 = 12.5 + 5 log d + 10.0 log r

---------------------------------------------------------------------

The orbital elements are published on M.P.E.C. 2019-O97.
The magnitudes graphs are made with Comet for Windows.

---------------------------------------------------------------------

Copyright(C) Seiichi Yoshida (comet@aerith.net). All rights reserved.